DateTimeUTC,F1_A11,F1_S11,BsB_S11,BsG_S11,BsR_S11,BbsB_S11,BbsG_S11,BbsR_S11,BaB_A11,BaG_A11,BaR_A11,Tu_S11,T_S11,Uu_S11,U_S11,P_S11,T1_A11
2021-07-23T14:00:00Z,00000200,20000000,,,,,,,-000.05,0000.06,0000.20,19.8,26.2,06.5,04.4,0665.8,31.2
2021-07-23T14:01:00Z,00000200,20000000,,,,,,,0000.06,0000.04,-000.42,19.8,26.2,06.5,04.4,0665.8,31.2
2021-07-23T14:02:00Z,00000200,20000000,,,,,,,0000.00,-000.15,0000.44,19.8,26.2,06.5,04.4,0665.8,31.2
2021-07-23T14:03:00Z,00000200,60000000,,,,,,,0000.54,0000.31,0000.42,19.8,26.2,06.5,04.4,0665.8,31.2
2021-07-23T14:04:00Z,00000200,40000000,0002.36,0001.36,0001.08,0000.88,0000.24,0000.27,0000.64,0000.87,-000.02,19.9,26.1,06.7,04.6,0666.7,31.2
2021-07-23T14:05:00Z,00000200,00000000,0002.15,0001.52,0000.89,-000.01,0000.45,-000.27,0000.35,0000.46,0000.58,19.9,26.0,06.6,04.6,0666.8,31.2
2021-07-23T14:06:00Z,00000200,00000000,0001.86,0001.39,0000.90,-000.02,0000.35,0000.24,0000.43,0000.48,0000.85,20.0,26.0,06.8,04.7,0666.8,31.2
2021-07-23T14:07:00Z,00000200,00000000,0001.48,0001.52,0001.00,0000.17,0000.08,-000.04,0000.39,0000.28,-000.27,20.0,26.0,06.8,04.7,0666.8,31.2
2021-07-23T14:08:00Z,00000200,00000000,0002.27,0001.68,0001.33,0000.36,0000.52,0000.50,0000.53,0000.73,0000.50,19.9,26.0,06.6,04.6,0666.8,31.2
2021-07-23T14:09:00Z,00000200,00000000,0001.94,0001.55,0001.22,0001.09,-000.05,0000.46,0000.53,-000.15,0000.21,20.0,26.0,06.7,04.6,0666.8,31.2
2021-07-23T14:10:00Z,00000200,00000000,0001.64,0001.48,0000.96,0000.41,0000.35,0000.19,0000.19,0001.09,0000.37,20.0,26.0,06.5,04.5,0666.7,31.2
2021-07-23T14:11:00Z,00000200,00000000,0002.70,0001.61,0000.91,0000.32,0000.54,0000.24,0000.86,0000.12,0000.46,20.0,26.0,06.5,04.5,0666.7,31.2
2021-07-23T14:12:00Z,00000200,00000000,0002.03,0001.48,0000.94,0000.59,0000.32,0000.13,0000.09,0000.68,0000.72,20.0,26.0,06.6,04.6,0666.7,31.2
2021-07-23T14:13:00Z,00000200,00000000,0001.96,0001.99,0001.12,-000.03,0000.51,0000.04,0000.70,0000.17,-000.27,20.0,26.0,06.5,04.5,0666.7,31.2
2021-07-23T14:14:00Z,00000200,00000000,0002.75,0001.37,0000.90,-000.22,0000.10,0000.33,0000.90,0000.89,0000.78,20.0,26.0,06.6,04.6,0666.7,31.2
2021-07-23T14:15:00Z,00000200,00000000,0002.36,0001.31,0000.77,0000.45,0000.43,0000.03,0000.45,0000.35,0000.05,20.0,26.1,06.7,04.6,0666.7,31.2
2021-07-23T14:16:00Z,00000200,00000000,0001.98,0001.77,0000.86,0000.48,0000.31,0000.20,0000.80,0000.47,0000.80,20.0,26.1,06.7,04.7,0666.7,31.2
2021-07-23T14:17:00Z,00000200,00000000,0002.63,0001.80,0001.14,-000.27,0000.36,0000.34,0000.08,0000.19,0000.12,20.0,26.1,06.6,04.6,0666.7,31.2
2021-07-23T14:18:00Z,00000200,00000000,0002.11,0001.23,0000.86,0000.17,0000.34,-000.01,0000.51,0000.70,0000.42,20.0,26.1,06.6,04.6,0666.8,31.2
2021-07-23T14:19:00Z,00000200,00000000,0002.34,0001.68,0001.07,0000.61,0000.20,-000.17,0001.10,0000.65,0000.56,20.1,26.1,06.6,04.6,0666.8,31.2
2021-07-23T14:20:00Z,00000200,00000000,0002.06,0001.62,0001.07,0000.42,0000.40,0000.14,0000.33,0000.85,0000.60,20.1,26.1,06.8,04.7,0666.8,31.2
2021-07-23T14:21:00Z,00000200,00000000,0002.08,0001.58,0000.68,0000.55,0000.12,0000.09,0000.13,0000.23,0000.09,20.1,26.1,06.7,04.6,0666.8,31.2
2021-07-23T14:22:00Z,00000200,00000000,0002.11,0001.83,0000.72,0000.46,0000.33,0000.11,0000.35,0000.17,0000.24,20.1,26.1,06.4,04.5,0666.8,31.2
2021-07-23T14:23:00Z,00000200,00000000,0002.42,0001.58,0001.20,0000.37,0000.20,0000.32,0001.27,0001.09,0000.82,20.1,26.1,06.6,04.6,0666.8,31.2
2021-07-23T14:24:00Z,00000200,00000000,0001.77,0001.70,0001.10,0000.42,0000.25,0000.17,0000.39,-000.03,0000.16,20.1,26.1,06.7,04.7,0666.8,31.2
2021-07-23T14:25:00Z,00000200,00000000,0002.20,0001.69,0000.92,-000.07,0000.61,0000.45,0000.44,0000.68,0000.53,20.0,26.1,06.7,04.6,0666.8,31.2
2021-07-23T14:26:00Z,00000200,00000000,0002.80,0001.67,0000.96,0000.49,0000.08,0000.31,0000.59,0000.36,0000.00,20.1,26.1,06.6,04.6,0666.8,31.2
2021-07-23T14:27:00Z,00000200,00000000,0001.56,0001.76,0001.03,0000.15,0000.16,0000.47,0000.70,0000.73,0000.81,20.1,26.1,06.5,04.5,0666.8,31.2
2021-07-23T14:28:00Z,00000200,00000000,0002.59,0001.86,0000.91,-000.05,0000.48,-000.17,0000.32,0000.36,0000.06,20.1,26.1,06.6,04.6,0666.8,31.2
2021-07-23T14:29:00Z,00000200,00000000,0002.71,0001.79,0000.92,0000.28,0000.32,0000.29,0000.46,0000.37,0000.51,20.1,26.1,06.5,04.5,0666.8,31.2
2021-07-23T14:30:00Z,00000200,00000000,0002.17,0001.75,0001.41,0000.67,0000.20,0000.45,0000.98,0000.75,0000.33,20.1,26.1,06.6,04.6,0666.8,31.2
2021-07-23T14:31:00Z,00000200,00000000,0002.41,0001.75,0001.07,0000.57,0000.34,0000.25,0000.05,0000.38,0000.28,20.1,26.1,06.5,04.5,0666.8,31.2
2021-07-23T14:32:00Z,00000200,00000000,0002.71,0001.56,0001.08,0000.30,0000.28,0000.42,0000.21,0000.38,0000.27,20.1,26.1,06.4,04.5,0666.8,31.2
2021-07-23T14:33:00Z,00000200,00000000,0002.54,0001.78,0001.18,-000.15,0000.05,0000.19,0001.21,0000.67,0000.73,20.1,26.1,06.3,04.4,0666.8,31.2
2021-07-23T14:34:00Z,00000200,00000000,0001.65,0002.02,0000.69,0000.60,0000.29,0000.23,-000.00,0000.38,0000.09,20.1,26.1,06.4,04.5,0666.8,31.2
2021-07-23T14:35:00Z,00000200,00000000,0002.44,0001.75,0000.94,0000.80,0000.28,0000.16,0000.56,0000.14,0000.44,20.1,26.1,06.3,04.4,0666.8,31.2
2021-07-23T14:36:00Z,00000200,00000000,0002.62,0001.58,0001.27,0000.24,0000.34,0000.55,0000.65,0001.00,0000.30,20.1,26.1,06.4,04.4,0666.8,31.2
2021-07-23T14:37:00Z,00000200,00000000,0001.87,0001.84,0000.94,-000.24,0000.33,0000.18,0000.34,0000.36,0000.64,20.1,26.1,06.3,04.3,0666.8,31.2
2021-07-23T14:38:00Z,00000200,00010000,0003.09,0001.75,0000.62,0000.77,0000.43,0000.14,0000.71,-000.00,0000.58,20.1,26.1,06.4,04.5,0666.8,31.2
2021-07-23T14:39:00Z,00000200,00000000,0002.16,0001.60,0001.30,0000.21,0000.22,0000.43,0000.71,0001.47,0000.40,20.1,26.2,06.3,04.4,0666.8,31.2
2021-07-23T14:40:00Z,00000200,00000000,0002.25,0001.85,0001.26,0000.56,0000.54,0000.30,0000.60,0000.29,0000.35,20.1,26.2,06.3,04.4,0666.7,31.2
2021-07-23T14:41:00Z,00000200,00000000,0002.52,0001.88,0001.02,0000.82,0000.45,0000.33,0000.41,0000.21,0000.31,20.1,26.2,06.3,04.4,0666.7,31.2
2021-07-23T14:42:00Z,00000200,00000000,0002.08,0001.82,0001.00,0000.24,0000.42,0000.36,0000.52,0000.59,0000.13,20.1,26.2,06.2,04.3,0666.8,31.2
2021-07-23T14:43:00Z,00000200,00000000,0002.12,0001.66,0001.12,0000.42,0000.11,0000.26,0000.90,0000.76,0000.91,20.1,26.2,06.2,04.3,0666.7,31.2
2021-07-23T14:44:00Z,00000200,00000000,0001.79,0001.46,0000.92,0000.02,0000.21,0000.18,0000.31,0000.40,-000.13,20.1,26.2,06.3,04.4,0666.7,31.2
2021-07-23T14:45:00Z,00000200,00000000,0002.67,0001.45,0001.08,0000.12,0000.52,-000.13,0000.64,0000.51,0000.79,20.1,26.2,06.3,04.4,0666.7,31.2
2021-07-23T14:46:00Z,00000200,00000000,0002.80,0001.72,0000.62,0000.13,0000.50,-000.01,0000.68,0000.67,0000.63,20.2,26.2,06.2,04.3,0666.7,31.2
2021-07-23T14:47:00Z,00000200,00000000,0002.38,0001.46,0001.41,0000.41,0000.11,0000.37,0000.45,-000.06,0000.00,20.2,26.2,06.3,04.4,0666.7,31.2
2021-07-23T14:48:00Z,00000200,00000000,0002.80,0001.92,0001.00,-000.08,0000.23,0000.11,0000.42,0000.49,0000.44,20.2,26.2,06.2,04.3,0666.7,31.2
2021-07-23T14:49:00Z,00000200,00000000,0002.38,0001.53,0000.91,0000.63,0000.08,0000.37,0000.77,0001.45,0000.55,20.2,26.2,06.3,04.3,0666.7,31.2
2021-07-23T14:50:00Z,00000200,00000000,0002.52,0001.79,0001.01,0000.56,0000.28,0000.59,0000.60,-000.22,0000.25,20.2,26.2,06.2,04.3,0666.7,31.2
2021-07-23T14:51:00Z,00000200,00000000,0002.23,0001.87,0000.88,-000.12,0000.17,-000.10,0000.45,0000.55,0000.56,20.2,26.2,06.2,04.3,0666.8,31.2
2021-07-23T14:52:00Z,00000200,00000000,0002.19,0001.65,0001.00,0000.36,0000.24,-000.02,0001.04,0000.91,0000.47,20.2,26.2,06.3,04.4,0666.8,31.2
2021-07-23T14:53:00Z,00000200,00000000,0002.37,0001.74,0000.70,0000.52,0000.33,-000.01,-000.11,0000.28,0000.19,20.2,26.2,06.2,04.3,0666.7,31.2
2021-07-23T14:54:00Z,00000200,00000000,0002.12,0001.88,0001.12,0000.04,0000.67,0000.45,0000.70,0000.36,0000.27,20.2,26.2,06.1,04.3,0666.7,31.2
2021-07-23T14:55:00Z,00000200,00000000,0002.03,0001.85,0000.88,0000.43,0000.00,0000.16,0000.90,0000.68,0000.52,20.2,26.2,06.2,04.3,0666.7,31.2
2021-07-23T14:56:00Z,00000200,00000000,0002.64,0001.27,0000.75,0000.86,0000.41,0000.05,0000.50,0000.71,0000.90,20.2,26.2,06.2,04.3,0666.8,31.2
2021-07-23T14:57:00Z,00000200,40000000,,,,,,,0000.41,0000.40,0000.06,20.3,26.3,06.3,04.4,0666.8,31.2
2021-07-23T14:58:00Z,00000200,60000000,,,,,,,-000.24,-000.42,-000.51,20.1,26.4,06.3,04.3,0665.8,31.2
2021-07-23T14:59:00Z,00000200,20000000,,,,,,,-000.06,-000.09,0000.16,20.1,26.5,06.0,04.1,0665.8,31.2
